Year,Month,Day,Hour,Minute,Value (Times are PST for windgust in km/hr)
2017,04,09,00,00,9.60
2017,04,09,00,01,8.10
2017,04,09,00,02,9.60
2017,04,09,00,03,9.60
2017,04,09,00,04,4.80
2017,04,09,00,05,6.40
2017,04,09,00,06,9.60
2017,04,09,00,07,11.30
2017,04,09,00,08,11.30
2017,04,09,00,09,9.60
2017,04,09,00,10,11.30
2017,04,09,00,11,9.60
2017,04,09,00,12,9.60
2017,04,09,00,13,8.10
2017,04,09,00,14,6.40
2017,04,09,00,15,3.20
2017,04,09,00,16,14.50
2017,04,09,00,17,11.30
2017,04,09,00,18,11.30
2017,04,09,00,19,11.30
2017,04,09,00,20,11.30
2017,04,09,00,21,9.60
2017,04,09,00,22,9.60
2017,04,09,00,23,9.60
2017,04,09,00,24,8.10
2017,04,09,00,25,11.30
2017,04,09,00,26,6.40
2017,04,09,00,27,9.60
2017,04,09,00,28,11.30
2017,04,09,00,29,6.40
2017,04,09,00,30,4.80
2017,04,09,00,31,8.10
2017,04,09,00,32,8.10
2017,04,09,00,33,6.40
2017,04,09,00,34,9.60
2017,04,09,00,35,9.60
2017,04,09,00,36,6.40
2017,04,09,00,37,8.10
2017,04,09,00,38,6.40
2017,04,09,00,39,6.40
2017,04,09,00,40,6.40
2017,04,09,00,41,4.80
2017,04,09,00,42,4.80
2017,04,09,00,43,4.80
2017,04,09,00,44,4.80
2017,04,09,00,45,6.40
2017,04,09,00,46,6.40
2017,04,09,00,47,6.40
2017,04,09,00,48,6.40
2017,04,09,00,49,8.10
2017,04,09,00,50,6.40
2017,04,09,00,51,6.40
2017,04,09,00,52,6.40
2017,04,09,00,53,4.80
2017,04,09,00,54,4.80
2017,04,09,00,55,6.40
2017,04,09,00,56,6.40
2017,04,09,00,57,8.10
2017,04,09,00,58,8.10
2017,04,09,00,59,8.10
2017,04,09,01,00,8.10
2017,04,09,01,01,4.80
2017,04,09,01,02,6.40
2017,04,09,01,03,6.40
2017,04,09,01,04,8.10
2017,04,09,01,05,4.80
2017,04,09,01,06,4.80
2017,04,09,01,07,4.80
2017,04,09,01,08,6.40
2017,04,09,01,09,9.60
2017,04,09,01,10,9.60
2017,04,09,01,11,4.80
2017,04,09,01,12,6.40
2017,04,09,01,13,6.40
2017,04,09,01,14,4.80
2017,04,09,01,15,6.40
2017,04,09,01,16,4.80
2017,04,09,01,17,6.40
2017,04,09,01,18,3.20
2017,04,09,01,19,3.20
2017,04,09,01,20,3.20
2017,04,09,01,21,3.20
2017,04,09,01,22,3.20
2017,04,09,01,23,4.80
2017,04,09,01,24,4.80
2017,04,09,01,25,4.80
2017,04,09,01,26,6.40
2017,04,09,01,27,4.80
2017,04,09,01,28,6.40
2017,04,09,01,29,6.40
2017,04,09,01,30,4.80
2017,04,09,01,31,3.20
2017,04,09,01,32,3.20
2017,04,09,01,33,3.20
2017,04,09,01,34,3.20
2017,04,09,01,35,3.20
2017,04,09,01,36,3.20
2017,04,09,01,37,4.80
2017,04,09,01,38,3.20
2017,04,09,01,39,4.80
2017,04,09,01,40,4.80
2017,04,09,01,41,4.80
2017,04,09,01,42,4.80
2017,04,09,01,43,4.80
2017,04,09,01,44,4.80
2017,04,09,01,45,4.80
2017,04,09,01,46,4.80
2017,04,09,01,47,6.40
2017,04,09,01,48,6.40
2017,04,09,01,49,6.40
2017,04,09,01,50,6.40
2017,04,09,01,51,6.40
2017,04,09,01,52,6.40
2017,04,09,01,53,6.40
2017,04,09,01,54,8.10
2017,04,09,01,55,8.10
2017,04,09,01,56,8.10
2017,04,09,01,57,6.40
2017,04,09,01,58,4.80
2017,04,09,01,59,6.40
2017,04,09,02,00,6.40
2017,04,09,02,01,8.10
2017,04,09,02,02,8.10
2017,04,09,02,03,8.10
2017,04,09,02,04,8.10
2017,04,09,02,05,8.10
2017,04,09,02,06,6.40
2017,04,09,02,07,8.10
2017,04,09,02,08,8.10
2017,04,09,02,09,8.10
2017,04,09,02,10,6.40
2017,04,09,02,11,8.10
2017,04,09,02,12,6.40
2017,04,09,02,13,4.80
2017,04,09,02,14,6.40
2017,04,09,02,15,6.40
2017,04,09,02,16,6.40
2017,04,09,02,17,8.10
2017,04,09,02,18,8.10
2017,04,09,02,19,8.10
2017,04,09,02,20,9.60
2017,04,09,02,21,9.60
2017,04,09,02,22,14.50
2017,04,09,02,23,9.60
2017,04,09,02,24,12.90
2017,04,09,02,25,16.10
2017,04,09,02,26,14.50
2017,04,09,02,27,11.30
2017,04,09,02,28,12.90
2017,04,09,02,29,12.90
2017,04,09,02,30,9.60
2017,04,09,02,31,9.60
2017,04,09,02,32,8.10
2017,04,09,02,33,9.60
2017,04,09,02,34,9.60
2017,04,09,02,35,11.30
2017,04,09,02,36,14.50
2017,04,09,02,37,11.30
2017,04,09,02,38,11.30
2017,04,09,02,39,9.60
2017,04,09,02,40,14.50
2017,04,09,02,41,14.50
2017,04,09,02,42,9.60
2017,04,09,02,43,9.60
2017,04,09,02,44,6.40
2017,04,09,02,45,9.60
2017,04,09,02,46,9.60
2017,04,09,02,47,9.60
2017,04,09,02,48,8.10
2017,04,09,02,49,9.60
2017,04,09,02,50,11.30
2017,04,09,02,51,8.10
2017,04,09,02,52,9.60
2017,04,09,02,53,11.30
2017,04,09,02,54,11.30
2017,04,09,02,55,11.30
2017,04,09,02,56,9.60
2017,04,09,02,57,6.40
2017,04,09,02,58,4.80
2017,04,09,02,59,6.40
2017,04,09,03,00,6.40
2017,04,09,03,01,6.40
2017,04,09,03,02,8.10
2017,04,09,03,03,8.10
2017,04,09,03,04,9.60
2017,04,09,03,05,9.60
2017,04,09,03,06,9.60
2017,04,09,03,07,8.10
2017,04,09,03,08,8.10
2017,04,09,03,09,6.40
2017,04,09,03,10,6.40
2017,04,09,03,11,8.10
2017,04,09,03,12,8.10
2017,04,09,03,13,6.40
2017,04,09,03,14,4.80
2017,04,09,03,15,1.60
2017,04,09,03,16,1.60
2017,04,09,03,17,1.60
2017,04,09,03,18,6.40
2017,04,09,03,19,9.60
2017,04,09,03,20,9.60
2017,04,09,03,21,6.40
2017,04,09,03,22,6.40
2017,04,09,03,23,12.90
2017,04,09,03,24,17.70
2017,04,09,03,25,11.30
2017,04,09,03,26,6.40
2017,04,09,03,27,4.80
2017,04,09,03,28,4.80
2017,04,09,03,29,4.80
2017,04,09,03,30,4.80
2017,04,09,03,31,8.10
2017,04,09,03,32,4.80
2017,04,09,03,33,8.10
2017,04,09,03,34,6.40
2017,04,09,03,35,1.60
2017,04,09,03,36,1.60
2017,04,09,03,39,4.80
2017,04,09,03,40,3.20
2017,04,09,03,41,1.60
2017,04,09,03,42,3.20
2017,04,09,03,43,3.20
2017,04,09,03,44,1.60
2017,04,09,03,45,6.40
2017,04,09,03,46,4.80
2017,04,09,03,47,4.80
2017,04,09,03,48,6.40
2017,04,09,03,49,4.80
2017,04,09,03,50,1.60
2017,04,09,03,51,4.80
2017,04,09,03,52,6.40
2017,04,09,03,53,6.40
2017,04,09,03,54,6.40
2017,04,09,03,55,6.40
2017,04,09,03,56,3.20
2017,04,09,03,57,3.20
2017,04,09,03,58,3.20
2017,04,09,03,59,4.80
2017,04,09,04,00,3.20
2017,04,09,04,01,3.20
2017,04,09,04,02,4.80
2017,04,09,04,04,3.20
2017,04,09,04,05,3.20
2017,04,09,04,06,4.80
2017,04,09,04,07,4.80
2017,04,09,04,08,4.80
2017,04,09,04,09,3.20
2017,04,09,04,10,3.20
2017,04,09,04,11,3.20
2017,04,09,04,12,1.60
2017,04,09,04,20,3.20
2017,04,09,04,21,1.60
2017,04,09,04,22,1.60
2017,04,09,04,23,3.20
2017,04,09,04,24,3.20
2017,04,09,04,25,3.20
2017,04,09,04,26,3.20
2017,04,09,04,27,3.20
2017,04,09,04,28,4.80
2017,04,09,04,29,4.80
2017,04,09,04,30,4.80
2017,04,09,04,31,6.40
2017,04,09,04,32,4.80
2017,04,09,04,33,6.40
2017,04,09,04,34,8.10
2017,04,09,04,35,6.40
2017,04,09,04,36,6.40
2017,04,09,04,37,6.40
2017,04,09,04,38,4.80
2017,04,09,04,39,6.40
2017,04,09,04,40,4.80
2017,04,09,04,41,4.80
2017,04,09,04,42,4.80
2017,04,09,04,43,6.40
2017,04,09,04,44,4.80
2017,04,09,04,45,6.40
2017,04,09,04,46,4.80
2017,04,09,04,47,1.60
2017,04,09,04,48,3.20
2017,04,09,04,49,1.60
2017,04,09,05,03,4.80
2017,04,09,05,04,6.40
2017,04,09,05,05,4.80
2017,04,09,05,06,6.40
2017,04,09,05,07,8.10
2017,04,09,05,08,4.80
2017,04,09,05,09,4.80
2017,04,09,05,10,6.40
2017,04,09,05,11,3.20
2017,04,09,05,12,4.80
2017,04,09,05,13,3.20
2017,04,09,05,14,4.80
2017,04,09,05,15,6.40
2017,04,09,05,16,8.10
2017,04,09,05,17,6.40
2017,04,09,05,18,8.10
2017,04,09,05,19,8.10
2017,04,09,05,20,8.10
2017,04,09,05,21,4.80
2017,04,09,05,22,3.20
2017,04,09,05,23,8.10
2017,04,09,05,24,11.30
2017,04,09,05,25,9.60
2017,04,09,05,26,9.60
2017,04,09,05,27,9.60
2017,04,09,05,28,9.60
2017,04,09,05,29,8.10
2017,04,09,05,30,6.40
2017,04,09,05,31,11.30
2017,04,09,05,32,16.10
2017,04,09,05,33,6.40
2017,04,09,05,34,3.20
2017,04,09,05,35,4.80
2017,04,09,05,36,11.30
2017,04,09,05,37,9.60
2017,04,09,05,38,6.40
2017,04,09,05,39,9.60
2017,04,09,05,40,8.10
2017,04,09,05,41,8.10
2017,04,09,05,42,9.60
2017,04,09,05,43,17.70
2017,04,09,05,44,11.30
2017,04,09,05,45,11.30
2017,04,09,05,46,9.60
2017,04,09,05,47,8.10
2017,04,09,05,48,8.10
2017,04,09,05,49,9.60
2017,04,09,05,50,16.10
2017,04,09,05,51,16.10
2017,04,09,05,52,16.10
2017,04,09,05,53,14.50
2017,04,09,05,54,11.30
2017,04,09,05,55,11.30
2017,04,09,05,56,8.10
2017,04,09,05,57,12.90
2017,04,09,05,58,16.10
2017,04,09,05,59,16.10
2017,04,09,06,00,16.10
2017,04,09,06,01,9.60
2017,04,09,06,02,11.30
2017,04,09,06,03,11.30
2017,04,09,06,04,11.30
2017,04,09,06,05,6.40
2017,04,09,06,06,9.60
2017,04,09,06,07,8.10
2017,04,09,06,08,4.80
2017,04,09,06,09,8.10
2017,04,09,06,10,8.10
2017,04,09,06,11,8.10
2017,04,09,06,12,9.60
2017,04,09,06,13,9.60
2017,04,09,06,14,8.10
2017,04,09,06,15,6.40
2017,04,09,06,16,11.30
2017,04,09,06,17,11.30
2017,04,09,06,18,8.10
2017,04,09,06,19,8.10
2017,04,09,06,20,11.30
2017,04,09,06,21,6.40
2017,04,09,06,22,4.80
2017,04,09,06,23,16.10
2017,04,09,06,24,11.30
2017,04,09,06,25,8.10
2017,04,09,06,26,6.40
2017,04,09,06,27,8.10
2017,04,09,06,28,9.60
2017,04,09,06,29,6.40
2017,04,09,06,30,11.30
2017,04,09,06,31,8.10
2017,04,09,06,32,6.40
2017,04,09,06,33,9.60
2017,04,09,06,34,12.90
2017,04,09,06,35,8.10
2017,04,09,06,36,6.40
2017,04,09,06,37,8.10
2017,04,09,06,38,16.10
2017,04,09,06,39,16.10
2017,04,09,06,40,11.30
2017,04,09,06,41,9.60
2017,04,09,06,42,11.30
2017,04,09,06,43,9.60
2017,04,09,06,44,8.10
2017,04,09,06,45,9.60
2017,04,09,06,46,11.30
2017,04,09,06,47,8.10
2017,04,09,06,48,9.60
2017,04,09,06,49,9.60
2017,04,09,06,50,9.60
2017,04,09,06,51,8.10
2017,04,09,06,52,9.60
2017,04,09,06,53,9.60
2017,04,09,06,54,8.10
2017,04,09,06,55,11.30
2017,04,09,06,56,14.50
2017,04,09,06,57,11.30
2017,04,09,06,58,6.40
2017,04,09,06,59,9.60
2017,04,09,07,00,9.60
2017,04,09,07,01,14.50
2017,04,09,07,02,14.50
2017,04,09,07,03,17.70
2017,04,09,07,04,12.90
2017,04,09,07,05,12.90
2017,04,09,07,06,11.30
2017,04,09,07,07,9.60
2017,04,09,07,08,9.60
2017,04,09,07,09,8.10
2017,04,09,07,10,3.20
2017,04,09,07,11,8.10
2017,04,09,07,12,8.10
2017,04,09,07,13,9.60
2017,04,09,07,14,8.10
2017,04,09,07,15,9.60
2017,04,09,07,16,11.30
2017,04,09,07,17,8.10
2017,04,09,07,18,4.80
2017,04,09,07,19,6.40
2017,04,09,07,20,6.40
2017,04,09,07,21,9.60
2017,04,09,07,22,11.30
2017,04,09,07,23,8.10
2017,04,09,07,24,6.40
2017,04,09,07,25,6.40
2017,04,09,07,26,11.30
2017,04,09,07,27,11.30
2017,04,09,07,28,12.90
2017,04,09,07,29,14.50
2017,04,09,07,30,8.10
2017,04,09,07,31,6.40
2017,04,09,07,32,6.40
2017,04,09,07,33,9.60
2017,04,09,07,34,9.60
2017,04,09,07,35,6.40
2017,04,09,07,36,4.80
2017,04,09,07,37,9.60
2017,04,09,07,38,8.10
2017,04,09,07,39,6.40
2017,04,09,07,40,4.80
2017,04,09,07,41,4.80
2017,04,09,07,42,3.20
2017,04,09,07,43,9.60
2017,04,09,07,44,9.60
2017,04,09,07,45,11.30
2017,04,09,07,46,9.60
2017,04,09,07,47,14.50
2017,04,09,07,48,6.40
2017,04,09,07,49,8.10
2017,04,09,07,50,6.40
2017,04,09,07,51,9.60
2017,04,09,07,52,16.10
2017,04,09,07,53,11.30
2017,04,09,07,54,11.30
2017,04,09,07,55,6.40
2017,04,09,07,56,6.40
2017,04,09,07,57,9.60
2017,04,09,07,58,9.60
2017,04,09,07,59,11.30
2017,04,09,08,00,6.40
2017,04,09,08,01,4.80
2017,04,09,08,02,3.20
2017,04,09,08,03,6.40
2017,04,09,08,04,4.80
2017,04,09,08,05,4.80
2017,04,09,08,06,4.80
2017,04,09,08,07,6.40
2017,04,09,08,08,4.80
2017,04,09,08,09,9.60
2017,04,09,08,10,9.60
2017,04,09,08,11,8.10
2017,04,09,08,12,6.40
2017,04,09,08,13,3.20
2017,04,09,08,14,8.10
2017,04,09,08,15,11.30
2017,04,09,08,16,9.60
2017,04,09,08,17,6.40
2017,04,09,08,18,4.80
2017,04,09,08,19,4.80
2017,04,09,08,20,6.40
2017,04,09,08,21,9.60
2017,04,09,08,22,11.30
2017,04,09,08,23,9.60
2017,04,09,08,24,9.60
2017,04,09,08,25,6.40
2017,04,09,08,26,12.90
2017,04,09,08,27,9.60
2017,04,09,08,28,8.10
2017,04,09,08,29,8.10
2017,04,09,08,30,8.10
2017,04,09,08,31,11.30
2017,04,09,08,32,8.10
2017,04,09,08,33,8.10
2017,04,09,08,34,9.60
2017,04,09,08,35,8.10
2017,04,09,08,36,8.10
2017,04,09,08,37,8.10
2017,04,09,08,38,11.30
2017,04,09,08,39,11.30
2017,04,09,08,40,11.30
2017,04,09,08,41,11.30
2017,04,09,08,42,9.60
2017,04,09,08,43,11.30
2017,04,09,08,44,9.60
2017,04,09,08,45,8.10
2017,04,09,08,46,6.40
2017,04,09,08,47,6.40
2017,04,09,08,48,6.40
2017,04,09,08,49,8.10
2017,04,09,08,50,9.60
2017,04,09,08,51,11.30
2017,04,09,08,52,8.10
2017,04,09,08,53,9.60
2017,04,09,08,54,8.10
2017,04,09,08,55,8.10
2017,04,09,08,56,8.10
2017,04,09,08,57,6.40
2017,04,09,08,58,8.10
2017,04,09,08,59,8.10
2017,04,09,09,00,6.40
2017,04,09,09,01,8.10
2017,04,09,09,02,4.80
2017,04,09,09,03,8.10
2017,04,09,09,04,9.60
2017,04,09,09,05,9.60
2017,04,09,09,06,9.60
2017,04,09,09,07,6.40
2017,04,09,09,08,4.80
2017,04,09,09,09,6.40
2017,04,09,09,10,6.40
2017,04,09,09,11,6.40
2017,04,09,09,12,4.80
2017,04,09,09,13,4.80
2017,04,09,09,14,6.40
2017,04,09,09,15,4.80
2017,04,09,09,16,3.20
2017,04,09,09,17,9.60
2017,04,09,09,18,8.10
2017,04,09,09,19,6.40
2017,04,09,09,20,6.40
2017,04,09,09,21,11.30
2017,04,09,09,22,8.10
2017,04,09,09,23,9.60
2017,04,09,09,24,8.10
2017,04,09,09,25,6.40
2017,04,09,09,26,9.60
2017,04,09,09,27,8.10
2017,04,09,09,28,4.80
2017,04,09,09,29,6.40
2017,04,09,09,30,9.60
2017,04,09,09,31,8.10
2017,04,09,09,32,4.80
2017,04,09,09,33,6.40
2017,04,09,09,34,11.30
2017,04,09,09,35,6.40
2017,04,09,09,36,8.10
2017,04,09,09,37,9.60
2017,04,09,09,38,4.80
2017,04,09,09,39,6.40
2017,04,09,09,40,6.40
2017,04,09,09,41,4.80
2017,04,09,09,42,4.80
2017,04,09,09,43,6.40
2017,04,09,09,44,6.40
2017,04,09,09,45,6.40
2017,04,09,09,46,11.30
2017,04,09,09,47,16.10
2017,04,09,09,48,14.50
2017,04,09,09,49,14.50
2017,04,09,09,50,8.10
2017,04,09,09,51,9.60
2017,04,09,09,52,6.40
2017,04,09,09,53,6.40
2017,04,09,09,54,6.40
2017,04,09,09,55,6.40
2017,04,09,09,56,4.80
2017,04,09,09,57,6.40
2017,04,09,09,58,4.80
2017,04,09,09,59,4.80
2017,04,09,10,00,4.80
2017,04,09,10,01,6.40
2017,04,09,10,02,4.80
2017,04,09,10,03,4.80
2017,04,09,10,04,11.30
2017,04,09,10,05,9.60
2017,04,09,10,06,9.60
2017,04,09,10,07,4.80
2017,04,09,10,08,4.80
2017,04,09,10,09,8.10
2017,04,09,10,10,8.10
2017,04,09,10,11,6.40
2017,04,09,10,12,6.40
2017,04,09,10,13,3.20
2017,04,09,10,14,4.80
2017,04,09,10,15,9.60
2017,04,09,10,16,3.20
2017,04,09,10,17,4.80
2017,04,09,10,18,9.60
2017,04,09,10,19,8.10
2017,04,09,10,20,3.20
2017,04,09,10,21,6.40
2017,04,09,10,22,8.10
2017,04,09,10,23,3.20
2017,04,09,10,24,1.60
2017,04,09,10,25,3.20
2017,04,09,10,26,8.10
2017,04,09,10,27,9.60
2017,04,09,10,28,6.40
2017,04,09,10,29,4.80
2017,04,09,10,30,4.80
2017,04,09,10,31,3.20
2017,04,09,10,32,4.80
2017,04,09,10,33,1.60
2017,04,09,10,34,8.10
2017,04,09,10,35,8.10
2017,04,09,10,36,6.40
2017,04,09,10,37,8.10
2017,04,09,10,38,4.80
2017,04,09,10,39,8.10
2017,04,09,10,40,6.40
2017,04,09,10,41,4.80
2017,04,09,10,42,3.20
2017,04,09,10,43,3.20
2017,04,09,10,44,3.20
2017,04,09,10,45,8.10
2017,04,09,10,46,8.10
2017,04,09,10,47,3.20
2017,04,09,10,48,6.40
2017,04,09,10,49,3.20
2017,04,09,10,50,3.20
2017,04,09,10,51,3.20
2017,04,09,10,52,3.20
2017,04,09,10,53,3.20
2017,04,09,10,54,4.80
2017,04,09,10,55,8.10
2017,04,09,10,56,8.10
2017,04,09,10,57,6.40
2017,04,09,10,58,3.20
2017,04,09,10,59,8.10
2017,04,09,11,00,4.80
2017,04,09,11,01,3.20
2017,04,09,11,02,6.40
2017,04,09,11,03,11.30
2017,04,09,11,04,6.40
2017,04,09,11,05,11.30
2017,04,09,11,06,16.10
2017,04,09,11,07,11.30
2017,04,09,11,08,9.60
2017,04,09,11,09,16.10
2017,04,09,11,10,19.30
2017,04,09,11,11,22.50
2017,04,09,11,12,17.70
2017,04,09,11,13,20.90
2017,04,09,11,14,14.50
2017,04,09,11,15,19.30
2017,04,09,11,16,19.30
2017,04,09,11,17,16.10
2017,04,09,11,18,9.60
2017,04,09,11,19,11.30
2017,04,09,11,20,22.50
2017,04,09,11,21,17.70
2017,04,09,11,22,16.10
2017,04,09,11,23,16.10
2017,04,09,11,24,22.50
2017,04,09,11,25,22.50
2017,04,09,11,26,24.20
2017,04,09,11,27,20.90
2017,04,09,11,28,22.50
2017,04,09,11,29,16.10
2017,04,09,11,30,29.00
2017,04,09,11,31,22.50
2017,04,09,11,32,16.10
2017,04,09,11,33,12.90
2017,04,09,11,34,16.10
2017,04,09,11,35,19.30
2017,04,09,11,36,24.20
2017,04,09,11,37,14.50
2017,04,09,11,38,20.90
2017,04,09,11,39,24.20
2017,04,09,11,40,24.20
2017,04,09,11,41,20.90
2017,04,09,11,42,17.70
2017,04,09,11,43,17.70
2017,04,09,11,44,14.50
2017,04,09,11,45,11.30
2017,04,09,11,46,20.90
2017,04,09,11,47,20.90
2017,04,09,11,48,17.70
2017,04,09,11,49,20.90
2017,04,09,11,50,25.70
2017,04,09,11,51,20.90
2017,04,09,11,52,19.30
2017,04,09,11,53,17.70
2017,04,09,11,54,22.50
2017,04,09,11,55,24.20
2017,04,09,11,56,17.70
2017,04,09,11,57,22.50
2017,04,09,11,58,12.90
2017,04,09,11,59,25.70
2017,04,09,12,00,24.20
2017,04,09,12,01,24.20
2017,04,09,12,02,20.90
2017,04,09,12,03,27.40
2017,04,09,12,04,24.20
2017,04,09,12,05,16.10
2017,04,09,12,06,17.70
2017,04,09,12,07,19.30
2017,04,09,12,08,22.50
2017,04,09,12,09,19.30
2017,04,09,12,10,22.50
2017,04,09,12,11,29.00
2017,04,09,12,12,24.20
2017,04,09,12,13,20.90
2017,04,09,12,14,12.90
2017,04,09,12,15,19.30
2017,04,09,12,16,19.30
2017,04,09,12,17,17.70
2017,04,09,12,18,16.10
2017,04,09,12,19,22.50
2017,04,09,12,20,22.50
2017,04,09,12,21,14.50
2017,04,09,12,22,9.60
2017,04,09,12,23,22.50
2017,04,09,12,24,25.70
2017,04,09,12,25,17.70
2017,04,09,12,26,20.90
2017,04,09,12,27,14.50
2017,04,09,12,28,19.30
2017,04,09,12,29,16.10
2017,04,09,12,30,16.10
2017,04,09,12,31,20.90
2017,04,09,12,32,16.10
2017,04,09,12,33,20.90
2017,04,09,12,34,27.40
2017,04,09,12,35,22.50
2017,04,09,12,36,14.50
2017,04,09,12,37,24.20
2017,04,09,12,38,17.70
2017,04,09,12,39,25.70
2017,04,09,12,40,24.20
2017,04,09,12,41,22.50
2017,04,09,12,42,24.20
2017,04,09,12,43,22.50
2017,04,09,12,44,19.30
2017,04,09,12,45,20.90
2017,04,09,12,46,22.50
2017,04,09,12,47,20.90
2017,04,09,12,48,19.30
2017,04,09,12,49,17.70
2017,04,09,12,50,19.30
2017,04,09,12,51,16.10
2017,04,09,12,52,17.70
2017,04,09,12,53,11.30
2017,04,09,12,54,11.30
2017,04,09,12,55,20.90
2017,04,09,12,56,14.50
2017,04,09,12,57,17.70
2017,04,09,12,58,22.50
2017,04,09,12,59,22.50
2017,04,09,13,00,17.70
2017,04,09,13,01,22.50
2017,04,09,13,02,25.70
2017,04,09,13,03,19.30
2017,04,09,13,04,20.90
2017,04,09,13,05,20.90
2017,04,09,13,06,27.40
2017,04,09,13,07,24.20
2017,04,09,13,08,29.00
2017,04,09,13,09,25.70
2017,04,09,13,10,22.50
2017,04,09,13,11,19.30
2017,04,09,13,12,24.20
2017,04,09,13,13,19.30
2017,04,09,13,14,20.90
2017,04,09,13,15,20.90
2017,04,09,13,16,29.00
2017,04,09,13,17,27.40
2017,04,09,13,18,22.50
2017,04,09,13,19,27.40
2017,04,09,13,20,17.70
2017,04,09,13,21,32.20
2017,04,09,13,22,19.30
2017,04,09,13,23,11.30
2017,04,09,13,24,20.90
2017,04,09,13,25,20.90
2017,04,09,13,26,16.10
2017,04,09,13,27,24.20
2017,04,09,13,28,19.30
2017,04,09,13,29,20.90
2017,04,09,13,30,22.50
2017,04,09,13,31,25.70
2017,04,09,13,32,29.00
2017,04,09,13,33,22.50
2017,04,09,13,34,24.20
2017,04,09,13,35,20.90
2017,04,09,13,36,25.70
2017,04,09,13,37,20.90
2017,04,09,13,38,25.70
2017,04,09,13,39,22.50
2017,04,09,13,40,20.90
2017,04,09,13,41,22.50
2017,04,09,13,42,24.20
2017,04,09,13,43,22.50
2017,04,09,13,44,20.90
2017,04,09,13,45,16.10
2017,04,09,13,46,22.50
2017,04,09,13,47,27.40
2017,04,09,13,48,19.30
2017,04,09,13,49,20.90
2017,04,09,13,50,17.70
2017,04,09,13,51,19.30
2017,04,09,13,52,24.20
2017,04,09,13,53,20.90
2017,04,09,13,54,24.20
2017,04,09,13,55,25.70
2017,04,09,13,56,29.00
2017,04,09,13,57,24.20
2017,04,09,13,58,22.50
2017,04,09,13,59,22.50
2017,04,09,14,00,16.10
2017,04,09,14,01,24.20
2017,04,09,14,02,22.50
2017,04,09,14,03,16.10
2017,04,09,14,04,16.10
2017,04,09,14,05,20.90
2017,04,09,14,06,16.10
2017,04,09,14,07,16.10
2017,04,09,14,08,17.70
2017,04,09,14,09,17.70
2017,04,09,14,10,20.90
2017,04,09,14,11,22.50
2017,04,09,14,12,19.30
2017,04,09,14,13,20.90
2017,04,09,14,14,29.00
2017,04,09,14,15,24.20
2017,04,09,14,16,22.50
2017,04,09,14,17,27.40
2017,04,09,14,18,14.50
2017,04,09,14,19,17.70
2017,04,09,14,20,16.10
2017,04,09,14,21,22.50
2017,04,09,14,22,24.20
2017,04,09,14,23,30.60
2017,04,09,14,24,32.20
2017,04,09,14,25,25.70
2017,04,09,14,26,29.00
2017,04,09,14,27,24.20
2017,04,09,14,28,24.20
2017,04,09,14,29,27.40
2017,04,09,14,30,9.60
2017,04,09,14,31,22.50
2017,04,09,14,32,22.50
2017,04,09,14,33,30.60
2017,04,09,14,34,22.50
2017,04,09,14,35,19.30
2017,04,09,14,36,27.40
2017,04,09,14,37,25.70
2017,04,09,14,38,24.20
2017,04,09,14,39,20.90
2017,04,09,14,40,25.70
2017,04,09,14,41,24.20
2017,04,09,14,42,24.20
2017,04,09,14,43,30.60
2017,04,09,14,44,29.00
2017,04,09,14,45,22.50
2017,04,09,14,46,19.30
2017,04,09,14,47,19.30
2017,04,09,14,48,24.20
2017,04,09,14,49,20.90
2017,04,09,14,50,20.90
2017,04,09,14,51,14.50
2017,04,09,14,52,22.50
2017,04,09,14,53,24.20
2017,04,09,14,54,20.90
2017,04,09,14,55,12.90
2017,04,09,14,56,25.70
2017,04,09,14,57,24.20
2017,04,09,14,58,22.50
2017,04,09,14,59,16.10
2017,04,09,15,00,14.50
2017,04,09,15,01,24.20
2017,04,09,15,02,20.90
2017,04,09,15,03,20.90
2017,04,09,15,04,20.90
2017,04,09,15,05,25.70
2017,04,09,15,06,24.20
2017,04,09,15,07,24.20
2017,04,09,15,08,22.50
2017,04,09,15,09,19.30
2017,04,09,15,10,24.20
2017,04,09,15,11,24.20
2017,04,09,15,12,14.50
2017,04,09,15,13,17.70
2017,04,09,15,14,16.10
2017,04,09,15,15,20.90
2017,04,09,15,16,17.70
2017,04,09,15,17,22.50
2017,04,09,15,18,17.70
2017,04,09,15,19,27.40
2017,04,09,15,20,25.70
2017,04,09,15,21,22.50
2017,04,09,15,22,19.30
2017,04,09,15,23,22.50
2017,04,09,15,24,30.60
2017,04,09,15,25,19.30
2017,04,09,15,26,22.50
2017,04,09,15,27,22.50
2017,04,09,15,28,22.50
2017,04,09,15,29,16.10
2017,04,09,15,30,17.70
2017,04,09,15,31,16.10
2017,04,09,15,32,17.70
2017,04,09,15,33,20.90
2017,04,09,15,34,19.30
2017,04,09,15,35,20.90
2017,04,09,15,36,20.90
2017,04,09,15,37,20.90
2017,04,09,15,38,22.50
2017,04,09,15,39,16.10
2017,04,09,15,40,19.30
2017,04,09,15,41,17.70
2017,04,09,15,42,19.30
2017,04,09,15,43,14.50
2017,04,09,15,44,20.90
2017,04,09,15,45,25.70
2017,04,09,15,46,14.50
2017,04,09,15,47,17.70
2017,04,09,15,48,16.10
2017,04,09,15,49,16.10
2017,04,09,15,50,11.30
2017,04,09,15,51,14.50
2017,04,09,15,52,24.20
2017,04,09,15,53,16.10
2017,04,09,15,54,20.90
2017,04,09,15,55,20.90
2017,04,09,15,56,17.70
2017,04,09,15,57,16.10
2017,04,09,15,58,14.50
2017,04,09,15,59,17.70
2017,04,09,16,00,14.50
2017,04,09,16,01,20.90
2017,04,09,16,02,16.10
2017,04,09,16,03,19.30
2017,04,09,16,04,22.50
2017,04,09,16,05,17.70
2017,04,09,16,06,20.90
2017,04,09,16,07,17.70
2017,04,09,16,08,14.50
2017,04,09,16,09,22.50
2017,04,09,16,10,17.70
2017,04,09,16,11,11.30
2017,04,09,16,12,16.10
2017,04,09,16,13,14.50
2017,04,09,16,14,12.90
2017,04,09,16,15,14.50
2017,04,09,16,16,14.50
2017,04,09,16,17,22.50
2017,04,09,16,18,11.30
2017,04,09,16,19,19.30
2017,04,09,16,20,22.50
2017,04,09,16,21,22.50
2017,04,09,16,22,20.90
2017,04,09,16,23,14.50
2017,04,09,16,24,11.30
2017,04,09,16,25,11.30
2017,04,09,16,26,19.30
2017,04,09,16,27,17.70
2017,04,09,16,28,20.90
2017,04,09,16,29,19.30
2017,04,09,16,30,20.90
2017,04,09,16,31,11.30
2017,04,09,16,32,20.90
2017,04,09,16,33,22.50
2017,04,09,16,34,17.70
2017,04,09,16,35,11.30
2017,04,09,16,36,20.90
2017,04,09,16,37,16.10
2017,04,09,16,38,24.20
2017,04,09,16,39,20.90
2017,04,09,16,40,14.50
2017,04,09,16,41,19.30
2017,04,09,16,42,20.90
2017,04,09,16,43,19.30
2017,04,09,16,44,20.90
2017,04,09,16,45,24.20
2017,04,09,16,46,14.50
2017,04,09,16,47,17.70
2017,04,09,16,48,17.70
2017,04,09,16,49,16.10
2017,04,09,16,50,16.10
2017,04,09,16,51,17.70
2017,04,09,16,52,19.30
2017,04,09,16,53,16.10
2017,04,09,16,54,16.10
2017,04,09,16,55,20.90
2017,04,09,16,56,16.10
2017,04,09,16,57,12.90
2017,04,09,16,58,19.30
2017,04,09,16,59,17.70
2017,04,09,17,00,20.90
2017,04,09,17,01,19.30
2017,04,09,17,02,16.10
2017,04,09,17,03,16.10
2017,04,09,17,04,14.50
2017,04,09,17,05,22.50
2017,04,09,17,06,19.30
2017,04,09,17,07,20.90
2017,04,09,17,08,17.70
2017,04,09,17,09,17.70
2017,04,09,17,10,20.90
2017,04,09,17,11,20.90
2017,04,09,17,12,16.10
2017,04,09,17,13,17.70
2017,04,09,17,14,16.10
2017,04,09,17,15,11.30
2017,04,09,17,16,14.50
2017,04,09,17,17,19.30
2017,04,09,17,18,17.70
2017,04,09,17,19,17.70
2017,04,09,17,20,24.20
2017,04,09,17,21,22.50
2017,04,09,17,22,22.50
2017,04,09,17,23,19.30
2017,04,09,17,24,19.30
2017,04,09,17,25,17.70
2017,04,09,17,26,20.90
2017,04,09,17,27,20.90
2017,04,09,17,28,19.30
2017,04,09,17,29,22.50
2017,04,09,17,30,22.50
2017,04,09,17,31,17.70
2017,04,09,17,32,16.10
2017,04,09,17,33,20.90
2017,04,09,17,34,16.10
2017,04,09,17,35,16.10
2017,04,09,17,36,16.10
2017,04,09,17,37,16.10
2017,04,09,17,38,17.70
2017,04,09,17,39,16.10
2017,04,09,17,40,12.90
2017,04,09,17,41,17.70
2017,04,09,17,42,17.70
2017,04,09,17,43,17.70
2017,04,09,17,44,17.70
2017,04,09,17,45,17.70
2017,04,09,17,46,16.10
2017,04,09,17,47,19.30
2017,04,09,17,48,14.50
2017,04,09,17,49,16.10
2017,04,09,17,50,14.50
2017,04,09,17,51,8.10
2017,04,09,17,52,14.50
2017,04,09,17,53,16.10
2017,04,09,17,54,9.60
2017,04,09,17,55,14.50
2017,04,09,17,56,14.50
2017,04,09,17,57,16.10
2017,04,09,17,58,16.10
2017,04,09,17,59,11.30
2017,04,09,18,00,9.60
2017,04,09,18,01,14.50
2017,04,09,18,02,16.10
2017,04,09,18,03,11.30
2017,04,09,18,04,14.50
2017,04,09,18,05,20.90
2017,04,09,18,06,17.70